{"data":{"norad_id":68903,"epoch":"2026-09-20T04:44:19.400064Z","epoch_age_seconds":41561,"freshness":"FRESH","line1":"1 68903U 26097J   26263.19744676  .00014447  00000+0  44910-3 0  9993","line2":"2 68903  97.2841  97.3174 0001855  99.3886 260.7566 15.33434643 22048","mean_motion":15.33434643,"eccentricity":0.0001855,"inclination_deg":97.2841,"raan_deg":97.3174,"arg_perigee_deg":99.3886,"mean_anomaly_deg":260.7566,"bstar":0.0004491,"rev_number":2204,"period_min":93.906838910512,"perigee_km":464.30448140819,"apogee_km":466.84349818541,"semimajor_km":6843.7109897968,"source":"CELESTRAK","updated_at":"2026-09-20T09:00:44.047392Z"}}